Home > Weather > Locarno > Past weeks

Flag for Switzerland Past Weather in Locarno, Ticino, Switzerland — Yesterday and Last 2 Weeks

Now
56 °F

Cool.


Feels Like: 56 °F
Forecast: 41 / 49 °F
Wind: 1 mph from Northwest

Location: Locarno-Monti

Current Time: Jun 1, 2016 at 2:02:45 AM

Latest Report: Jun 1, 2016 at 1:00 AM


Visibility: N/A

Pressure: 29.97 "Hg

Humidity: 91%

Dew Point: 54 °F

Location of LocarnoLocation

Past Weather in Locarno — Graph

°F

Locarno Temperature Yesterday

Maximum temperature yesterday: 60 °F (at 8:00 PM)
Minimum temperature yesterday: 56 °F (at 5:00 AM)
Average temperature yesterday: 57 °F

High & Low Weather Summary for the Past Weeks

 TemperatureHumidityPressure
High78 °F (May 27, 5:00 PM)100% (May 29, 2:00 PM)30.15 "Hg (May 29, 2:00 PM)
Low47 °F (May 23, 2:00 PM)26% (May 17, 4:00 PM)29.72 "Hg (May 24, 6:00 PM)
Average62 °F64%29.93 "Hg
* Reported May 17 12:00 AM — Jun 1 12:00 AM, Locarno, Weather by CustomWeather, © 2016

Note: Actual official high and low records may vary slightly from our data, if they occured in-between our weather recording intervals... More about our weather records

Advertising

Locarno Weather History for the Previous 24 Hours

Scroll right to see more
 ConditionsComfort  
Time TempWeatherWind HumidityBarometerVisibility
12:00 AM
Wed, Jun 1
57 °FCool.1 mph88%29.97 "HgN/A
11:00 PM
Tue, May 31
57 °FCool.1 mph87%29.96 "HgN/A
10:00 PM57 °FCool.1 mph89%29.96 "HgN/A
9:00 PM59 °FCool.2 mph82%29.93 "HgN/A
8:00 PM60 °FPartly sunny.1 mph86%29.91 "Hg16 mi
2:00 PM57 °FSprinkles. Low clouds.6 mph94%29.93 "Hg9 mi
1:00 PM57 °FCool.5 mph89%29.94 "HgN/A
12:00 PM57 °FCool.3 mph98%29.94 "HgN/A
11:00 AM56 °FRain. Low clouds.3 mph96%29.93 "Hg6 mi
10:00 AM57 °FCool.2 mph96%29.92 "HgN/A
7:00 AM57 °FCool.2 mph100%29.90 "HgN/A
6:00 AM56 °FCool.1 mph94%29.89 "HgN/A
5:00 AM56 °FCool.1 mph99%29.89 "HgN/A
4:00 AM57 °FCool.1 mph93%29.88 "HgN/A
3:00 AM57 °FCool.1 mph94%29.88 "HgN/A
2:00 AM57 °FCool.1 mph92%29.89 "HgN/A
Weather by CustomWeather, © 2016

See weather overviewHow to use our weather pages